Flag for Belgium Weather past 2 weeks in Antwerp, Belgium

41 °F

Partly cloudy.

Feels Like: 37 °F
Forecast: 36 / 47 °F
Wind: 6 mph from Northeast

Location: Antwerp / Deurne

Current Time: Oct 13, 2015 at 8:54:58 PM

Latest Report: Oct 13, 2015 at 8:20 PM

Visibility: N/A

Pressure: 30.18 "Hg

Humidity: 70%

Dew point: 32 °F

Location of AntwerpLocation

Historic Weather in Antwerp — Graph


Antwerp temperature yesterday

Maximum temperature yesterday: 52 °F (at 3:20 PM)
Minimum temperature yesterday: 36 °F (at 7:20 AM)
Average temperature yesterday: 43 °F

Past Weeks' High & Low Weather Summary

High66 °F (Oct 3, 2:20 PM)94% (Oct 5, 6:20 AM)30.60 "Hg (Oct 5, 6:20 AM)
Low36 °F (Oct 12, 7:20 AM)40% (Sep 30, 2:50 PM)29.53 "Hg (Oct 6, 3:20 PM)
Average52 °F76%30.10 "Hg
* Reported Sep 28 7:20 PM — Oct 13 7:50 PM, Antwerp, Weather by CustomWeather, © 2015

Note: Actual official high and low records may vary slightly from our data, if they occured in-between our weather recording intervals... More about our weather records


Antwerp weather history for previous 24 hours

Time TempWeatherWind HumidityBarometerVisibility
7:50 PM
Tue, Oct 13
39 °FPartly sunny.9 mph75%30.18 "Hg6 mi
7:20 PM39 °FPartly sunny.9 mph81%30.15 "Hg6 mi
6:50 PM39 °FPartly sunny.9 mph75%30.15 "Hg6 mi
6:20 PM41 °FPartly sunny.10 mph76%30.15 "Hg6 mi
5:50 PM41 °FPartly sunny.8 mph76%30.12 "Hg6 mi
5:20 PM39 °FPartly sunny.12 mph81%30.12 "Hg6 mi
4:50 PM41 °FPartly sunny.12 mph76%30.12 "Hg6 mi
4:20 PM41 °FPartly sunny.13 mph76%30.12 "Hg6 mi
3:50 PM41 °FPartly sunny.13 mph76%30.12 "HgN/A
3:20 PM43 °FPartly sunny.8 mph76%30.09 "HgN/A
2:50 PM41 °FPartly sunny.9 mph76%30.09 "HgN/A
2:20 PM41 °FPartly sunny.10 mph81%30.09 "HgN/A
1:50 PM41 °FPartly sunny.10 mph76%30.09 "HgN/A
1:20 PM41 °FPartly sunny.10 mph76%30.09 "HgN/A
12:50 PM41 °FPartly sunny.10 mph76%30.09 "HgN/A
12:20 PM41 °FPartly sunny.12 mph76%30.09 "HgN/A
11:50 AM41 °FScattered clouds.9 mph76%30.09 "Hg6 mi
11:20 AM41 °FScattered clouds.10 mph76%30.07 "Hg6 mi
10:50 AM41 °FScattered clouds.10 mph76%30.07 "Hg5 mi
10:20 AM39 °FPartly sunny.9 mph81%30.07 "Hg5 mi
9:50 AM39 °FScattered clouds.8 mph81%30.07 "Hg4 mi
9:20 AM37 °FPartly sunny.7 mph87%30.07 "Hg4 mi
8:50 AM37 °FPassing clouds.7 mph87%30.04 "Hg4 mi
8:20 AM37 °FPassing clouds.7 mph87%30.04 "Hg4 mi
7:50 AM37 °FPassing clouds.7 mph87%30.04 "Hg5 mi
7:20 AM37 °FPassing clouds.7 mph87%30.01 "Hg5 mi
6:50 AM39 °FPassing clouds.5 mph81%30.01 "Hg5 mi
6:20 AM39 °FClear.6 mph81%30.01 "Hg5 mi
5:50 AM39 °FClear.5 mph81%30.01 "Hg5 mi
5:20 AM39 °FClear.6 mph87%30.01 "Hg5 mi
4:50 AM39 °FClear.7 mph87%30.01 "Hg6 mi
4:20 AM39 °FOvercast.7 mph87%30.01 "Hg6 mi
3:50 AM39 °FPassing clouds.5 mph87%30.01 "Hg6 mi
3:20 AM39 °FPassing clouds.5 mph87%30.01 "Hg6 mi
2:50 AM41 °FOvercast.5 mph81%30.01 "HgN/A
2:20 AM41 °FOvercast.3 mph81%30.01 "HgN/A
1:50 AM41 °FClear.2 mph81%30.01 "Hg6 mi
1:20 AM39 °FClear.2 mph81%30.01 "Hg6 mi
12:50 AM39 °FClear.1 mph87%30.01 "Hg5 mi
12:20 AM39 °FClear.2 mph87%30.04 "Hg6 mi
11:50 PM
Mon, Oct 12
41 °FClear.2 mph81%30.04 "Hg5 mi
10:50 PM41 °FClear.2 mph81%30.04 "Hg6 mi
10:20 PM43 °FClear.2 mph81%30.04 "Hg6 mi
9:50 PM43 °FClear.3 mph81%30.04 "Hg6 mi
9:20 PM45 °FClear.6 mph81%30.04 "Hg10 mi
8:50 PM45 °FClear.3 mph81%30.04 "Hg10 mi
8:20 PM46 °FClear.2 mph76%30.04 "Hg10 mi
Weather by CustomWeather, © 2015

See weather overviewHow to use our weather pages